Time,TemperatureF,DewpointF,PressureIn,WindDirection,WindDirectionDegrees,WindSpeedMPH,WindSpeedGustMPH,Humidity,HourlyPrecipIn,Conditions,Clouds,dailyrainin,SoftwareType,DateUTC
2013-04-13 00:03:00,68.0,-99.9,-100.00,WSW,250,13.0,18.0,-999,-99.99,,,-99.99,,2013-04-13 04:03:00,
2013-04-13 00:12:00,68.0,-99.9,-100.00,SW,230,11.0,15.0,-999,-99.99,,,-99.99,,2013-04-13 04:12:00,
2013-04-13 00:23:00,67.0,-99.9,-100.00,SW,220,9.0,13.0,-999,-99.99,,,-99.99,,2013-04-13 04:23:00,
2013-04-13 00:33:00,67.0,-99.9,-100.00,SW,230,8.0,12.0,-999,-99.99,,,-99.99,,2013-04-13 04:33:00,
2013-04-13 00:43:00,67.0,-99.9,-100.00,WSW,245,8.0,14.0,-999,-99.99,,,-99.99,,2013-04-13 04:43:00,
2013-04-13 00:53:00,67.0,-99.9,-100.00,West,260,9.0,13.0,-999,-99.99,,,-99.99,,2013-04-13 04:53:00,
2013-04-13 01:03:00,67.0,-99.9,-100.00,WSW,255,9.0,11.0,-999,-99.99,,,-99.99,,2013-04-13 05:03:00,
2013-04-13 01:12:00,67.0,-99.9,-100.00,West,265,9.0,10.0,-999,-99.99,,,-99.99,,2013-04-13 05:12:00,
2013-04-13 01:23:00,67.0,-99.9,-100.00,WSW,255,9.0,10.0,-999,-99.99,,,-99.99,,2013-04-13 05:23:00,
2013-04-13 01:32:00,66.0,-99.9,-100.00,West,265,11.0,14.0,-999,-99.99,,,-99.99,,2013-04-13 05:32:00,
2013-04-13 01:43:00,66.0,-99.9,-100.00,West,270,13.0,18.0,-999,-99.99,,,-99.99,,2013-04-13 05:43:00,
2013-04-13 01:53:00,65.0,-99.9,-100.00,West,270,13.0,19.0,-999,-99.99,,,-99.99,,2013-04-13 05:53:00,
2013-04-13 02:02:00,65.0,-99.9,-100.00,West,270,14.0,18.0,-999,-99.99,,,-99.99,,2013-04-13 06:02:00,
2013-04-13 02:12:00,64.0,-99.9,-100.00,West,270,13.0,17.0,-999,-99.99,,,-99.99,,2013-04-13 06:12:00,
2013-04-13 02:25:00,64.0,-99.9,-100.00,West,265,11.0,15.0,-999,-99.99,,,-99.99,,2013-04-13 06:25:00,
2013-04-13 02:37:00,64.0,-99.9,-100.00,West,265,11.0,15.0,-999,-99.99,,,-99.99,,2013-04-13 06:37:00,
2013-04-13 02:49:00,63.0,-99.9,-100.00,West,265,9.0,14.0,-999,-99.99,,,-99.99,,2013-04-13 06:49:00,
2013-04-13 02:57:00,63.0,-99.9,-100.00,West,270,10.0,14.0,-999,-99.99,,,-99.99,,2013-04-13 06:57:00,
2013-04-13 03:08:00,63.0,-99.9,-100.00,West,265,12.0,15.0,-999,-99.99,,,-99.99,,2013-04-13 07:08:00,
2013-04-13 03:25:00,61.0,-99.9,-100.00,West,270,11.0,16.0,-999,-99.99,,,-99.99,,2013-04-13 07:25:00,
2013-04-13 03:37:00,61.0,-99.9,-100.00,West,270,8.0,14.0,-999,-99.99,,,-99.99,,2013-04-13 07:37:00,
2013-04-13 03:47:00,61.0,-99.9,-100.00,West,265,7.0,13.0,-999,-99.99,,,-99.99,,2013-04-13 07:47:00,
2013-04-13 03:59:00,60.0,-99.9,-100.00,West,265,6.0,10.0,-999,-99.99,,,-99.99,,2013-04-13 07:59:00,
2013-04-13 04:08:00,60.0,-99.9,-100.00,West,270,8.0,11.0,-999,-99.99,,,-99.99,,2013-04-13 08:08:00,
2013-04-13 04:18:00,60.0,-99.9,-100.00,West,270,9.0,14.0,-999,-99.99,,,-99.99,,2013-04-13 08:18:00,
2013-04-13 04:27:00,60.0,-99.9,-100.00,West,270,9.0,15.0,-999,-99.99,,,-99.99,,2013-04-13 08:27:00,
2013-04-13 04:36:00,60.0,-99.9,-100.00,West,270,9.0,14.0,-999,-99.99,,,-99.99,,2013-04-13 08:36:00,
2013-04-13 04:48:00,60.0,-99.9,-100.00,West,265,11.0,14.0,-999,-99.99,,,-99.99,,2013-04-13 08:48:00,
2013-04-13 04:55:00,60.0,-99.9,-100.00,West,270,11.0,14.0,-999,-99.99,,,-99.99,,2013-04-13 08:55:00,
2013-04-13 05:08:00,59.0,-99.9,-100.00,West,275,11.0,14.0,-999,-99.99,,,-99.99,,2013-04-13 09:08:00,
2013-04-13 05:15:00,59.0,-99.9,-100.00,West,275,13.0,16.0,-999,-99.99,,,-99.99,,2013-04-13 09:15:00,
2013-04-13 05:26:00,59.0,-99.9,-100.00,West,270,12.0,18.0,-999,-99.99,,,-99.99,,2013-04-13 09:26:00,
2013-04-13 05:39:00,58.0,-99.9,-100.00,West,275,11.0,17.0,-999,-99.99,,,-99.99,,2013-04-13 09:39:00,
2013-04-13 05:53:00,58.0,-99.9,-100.00,West,270,11.0,15.0,-999,-99.99,,,-99.99,,2013-04-13 09:53:00,
2013-04-13 06:06:00,58.0,-99.9,-100.00,West,275,11.0,15.0,-999,-99.99,,,-99.99,,2013-04-13 10:06:00,
2013-04-13 06:25:00,57.0,-99.9,-100.00,West,275,11.0,15.0,-999,-99.99,,,-99.99,,2013-04-13 10:25:00,
2013-04-13 06:52:00,57.0,-99.9,-100.00,West,275,13.0,17.0,-999,-99.99,,,-99.99,,2013-04-13 10:52:00,
2013-04-13 07:08:00,56.0,-99.9,-100.00,West,275,14.0,16.0,-999,-99.99,,,-99.99,,2013-04-13 11:08:00,
2013-04-13 07:14:00,56.0,-99.9,-100.00,West,275,15.0,20.0,-999,-99.99,,,-99.99,,2013-04-13 11:14:00,
2013-04-13 07:25:00,55.0,-99.9,-100.00,WNW,290,18.0,21.0,-999,-99.99,,,-99.99,,2013-04-13 11:25:00,
2013-04-13 07:35:00,55.0,-99.9,-100.00,West,275,14.0,22.0,-999,-99.99,,,-99.99,,2013-04-13 11:35:00,
2013-04-13 07:47:00,55.0,-99.9,-100.00,WNW,295,16.0,21.0,-999,-99.99,,,-99.99,,2013-04-13 11:47:00,
2013-04-13 07:54:00,55.0,-99.9,-100.00,WNW,285,14.0,20.0,-999,-99.99,,,-99.99,,2013-04-13 11:54:00,
2013-04-13 08:09:00,55.0,-99.9,-100.00,WNW,295,13.0,19.0,-999,-99.99,,,-99.99,,2013-04-13 12:09:00,
2013-04-13 08:17:00,55.0,-99.9,-100.00,WNW,295,11.0,16.0,-999,-99.99,,,-99.99,,2013-04-13 12:17:00,
2013-04-13 08:38:00,56.0,-99.9,-100.00,West,280,10.0,17.0,-999,-99.99,,,-99.99,,2013-04-13 12:38:00,
2013-04-13 08:49:00,56.0,-99.9,-100.00,NW,305,11.0,17.0,-999,-99.99,,,-99.99,,2013-04-13 12:49:00,
2013-04-13 08:58:00,57.0,-99.9,-100.00,WNW,290,9.0,15.0,-999,-99.99,,,-99.99,,2013-04-13 12:58:00,
2013-04-13 09:09:00,57.0,-99.9,-100.00,WNW,300,10.0,14.0,-999,-99.99,,,-99.99,,2013-04-13 13:09:00,
2013-04-13 09:18:00,58.0,-99.9,-100.00,NW,315,11.0,17.0,-999,-99.99,,,-99.99,,2013-04-13 13:18:00,
2013-04-13 09:32:00,58.0,-99.9,-100.00,NW,310,9.0,14.0,-999,-99.99,,,-99.99,,2013-04-13 13:32:00,
2013-04-13 09:38:00,59.0,-99.9,-100.00,NW,305,9.0,14.0,-999,-99.99,,,-99.99,,2013-04-13 13:38:00,
2013-04-13 09:49:00,60.0,-99.9,-100.00,NNW,345,8.0,14.0,-999,-99.99,,,-99.99,,2013-04-13 13:49:00,
2013-04-13 09:58:00,61.0,-99.9,-100.00,NNE,15,9.0,11.0,-999,-99.99,,,-99.99,,2013-04-13 13:58:00,
2013-04-13 10:06:00,61.0,-99.9,-100.00,North,0,9.0,15.0,-999,-99.99,,,-99.99,,2013-04-13 14:06:00,
2013-04-13 10:15:00,61.0,-99.9,-100.00,North,5,9.0,17.0,-999,-99.99,,,-99.99,,2013-04-13 14:15:00,
2013-04-13 10:24:00,62.0,-99.9,-100.00,North,5,8.0,15.0,-999,-99.99,,,-99.99,,2013-04-13 14:24:00,
2013-04-13 10:40:00,62.0,-99.9,-100.00,North,5,10.0,14.0,-999,-99.99,,,-99.99,,2013-04-13 14:40:00,
2013-04-13 10:49:00,62.0,-99.9,-100.00,North,0,13.0,17.0,-999,-99.99,,,-99.99,,2013-04-13 14:49:00,
2013-04-13 11:00:00,63.0,-99.9,-100.00,NNE,15,13.0,18.0,-999,-99.99,,,-99.99,,2013-04-13 15:00:00,
2013-04-13 11:07:00,63.0,-99.9,-100.00,NNE,20,10.0,21.0,-999,-99.99,,,-99.99,,2013-04-13 15:07:00,
2013-04-13 11:15:00,62.0,-99.9,-100.00,NNE,30,15.0,19.0,-999,-99.99,,,-99.99,,2013-04-13 15:15:00,
2013-04-13 11:30:00,63.0,-99.9,-100.00,NNE,30,16.0,19.0,-999,-99.99,,,-99.99,,2013-04-13 15:30:00,
2013-04-13 11:38:00,63.0,-99.9,-100.00,NNE,30,11.0,17.0,-999,-99.99,,,-99.99,,2013-04-13 15:38:00,
2013-04-13 11:45:00,63.0,-99.9,-100.00,NNE,15,12.0,18.0,-999,-99.99,,,-99.99,,2013-04-13 15:45:00,
2013-04-13 11:59:00,63.0,-99.9,-100.00,NNE,25,11.0,14.0,-999,-99.99,,,-99.99,,2013-04-13 15:59:00,
2013-04-13 12:08:00,63.0,-99.9,-100.00,NNE,20,10.0,14.0,-999,-99.99,,,-99.99,,2013-04-13 16:08:00,
2013-04-13 12:18:00,64.0,-99.9,-100.00,NNE,30,11.0,14.0,-999,-99.99,,,-99.99,,2013-04-13 16:18:00,
2013-04-13 12:26:00,64.0,-99.9,-100.00,NNE,30,11.0,14.0,-999,-99.99,,,-99.99,,2013-04-13 16:26:00,
2013-04-13 12:37:00,65.0,-99.9,-100.00,NE,45,5.0,13.0,-999,-99.99,,,-99.99,,2013-04-13 16:37:00,
2013-04-13 12:49:00,65.0,-99.9,-100.00,NE,35,8.0,11.0,-999,-99.99,,,-99.99,,2013-04-13 16:49:00,
2013-04-13 13:00:00,65.0,-99.9,-100.00,NE,35,5.0,11.0,-999,-99.99,,,-99.99,,2013-04-13 17:00:00,
2013-04-13 13:09:00,65.0,-99.9,-100.00,NE,40,8.0,11.0,-999,-99.99,,,-99.99,,2013-04-13 17:09:00,
2013-04-13 13:23:00,65.0,-99.9,-100.00,NE,40,9.0,13.0,-999,-99.99,,,-99.99,,2013-04-13 17:23:00,
2013-04-13 14:05:00,67.0,-99.9,-100.00,NE,55,6.0,7.0,-999,-99.99,,,-99.99,,2013-04-13 18:05:00,
2013-04-13 14:25:00,69.0,-99.9,-100.00,East,90,4.0,9.0,-999,-99.99,,,-99.99,,2013-04-13 18:25:00,
2013-04-13 14:33:00,69.0,-99.9,-100.00,ENE,75,5.0,9.0,-999,-99.99,,,-99.99,,2013-04-13 18:33:00,
2013-04-13 14:42:00,69.0,-99.9,-100.00,East,80,4.0,9.0,-999,-99.99,,,-99.99,,2013-04-13 18:42:00,
2013-04-13 14:53:00,71.0,-99.9,-100.00,SE,125,4.0,7.0,-999,-99.99,,,-99.99,,2013-04-13 18:53:00,
2013-04-13 15:03:00,71.0,-99.9,-100.00,ESE,110,4.0,7.0,-999,-99.99,,,-99.99,,2013-04-13 19:03:00,
2013-04-13 15:13:00,72.0,-99.9,-100.00,ESE,105,4.0,7.0,-999,-99.99,,,-99.99,,2013-04-13 19:13:00,
2013-04-13 15:23:00,72.0,-99.9,-100.00,East,85,3.0,8.0,-999,-99.99,,,-99.99,,2013-04-13 19:23:00,
2013-04-13 15:33:00,72.0,-99.9,-100.00,East,95,4.0,7.0,-999,-99.99,,,-99.99,,2013-04-13 19:33:00,
2013-04-13 15:42:00,72.0,-99.9,-100.00,East,95,4.0,10.0,-999,-99.99,,,-99.99,,2013-04-13 19:42:00,
2013-04-13 15:53:00,71.0,-99.9,-100.00,ENE,65,4.0,8.0,-999,-99.99,,,-99.99,,2013-04-13 19:53:00,
2013-04-13 16:02:00,71.0,-99.9,-100.00,ENE,70,6.0,8.0,-999,-99.99,,,-99.99,,2013-04-13 20:02:00,
2013-04-13 16:13:00,71.0,-99.9,-100.00,ESE,105,5.0,11.0,-999,-99.99,,,-99.99,,2013-04-13 20:13:00,
2013-04-13 16:22:00,72.0,-99.9,-100.00,East,95,4.0,9.0,-999,-99.99,,,-99.99,,2013-04-13 20:22:00,
2013-04-13 16:33:00,72.0,-99.9,-100.00,ESE,120,6.0,10.0,-999,-99.99,,,-99.99,,2013-04-13 20:33:00,
2013-04-13 16:43:00,70.0,-99.9,-100.00,SE,125,7.0,11.0,-999,-99.99,,,-99.99,,2013-04-13 20:43:00,
2013-04-13 16:53:00,70.0,-99.9,-100.00,SE,130,9.0,14.0,-999,-99.99,,,-99.99,,2013-04-13 20:53:00,
2013-04-13 17:02:00,69.0,-99.9,-100.00,SE,135,9.0,14.0,-999,-99.99,,,-99.99,,2013-04-13 21:02:00,
2013-04-13 17:12:00,69.0,-99.9,-100.00,SSE,150,11.0,14.0,-999,-99.99,,,-99.99,,2013-04-13 21:12:00,
2013-04-13 17:22:00,68.0,-99.9,-100.00,SE,140,11.0,18.0,-999,-99.99,,,-99.99,,2013-04-13 21:22:00,
2013-04-13 17:33:00,68.0,-99.9,-100.00,SSE,160,12.0,16.0,-999,-99.99,,,-99.99,,2013-04-13 21:33:00,
2013-04-13 17:43:00,68.0,-99.9,-100.00,SSE,155,11.0,18.0,-999,-99.99,,,-99.99,,2013-04-13 21:43:00,
2013-04-13 17:53:00,67.0,-99.9,-100.00,SE,145,12.0,16.0,-999,-99.99,,,-99.99,,2013-04-13 21:53:00,
2013-04-13 18:03:00,67.0,-99.9,-100.00,SSE,150,10.0,14.0,-999,-99.99,,,-99.99,,2013-04-13 22:03:00,
2013-04-13 18:13:00,67.0,-99.9,-100.00,SSE,150,9.0,16.0,-999,-99.99,,,-99.99,,2013-04-13 22:13:00,
2013-04-13 18:23:00,67.0,-99.9,-100.00,SSE,155,10.0,14.0,-999,-99.99,,,-99.99,,2013-04-13 22:23:00,
2013-04-13 18:33:00,67.0,-99.9,-100.00,SE,145,9.0,13.0,-999,-99.99,,,-99.99,,2013-04-13 22:33:00,
2013-04-13 18:42:00,67.0,-99.9,-100.00,South,170,11.0,15.0,-999,-99.99,,,-99.99,,2013-04-13 22:42:00,
2013-04-13 18:53:00,66.0,-99.9,-100.00,SSE,155,10.0,13.0,-999,-99.99,,,-99.99,,2013-04-13 22:53:00,
2013-04-13 19:02:00,66.0,-99.9,-100.00,SSE,150,10.0,13.0,-999,-99.99,,,-99.99,,2013-04-13 23:02:00,
2013-04-13 19:12:00,66.0,-99.9,-100.00,SSE,160,9.0,12.0,-999,-99.99,,,-99.99,,2013-04-13 23:12:00,
2013-04-13 19:22:00,66.0,-99.9,-100.00,SSE,160,9.0,12.0,-999,-99.99,,,-99.99,,2013-04-13 23:22:00,
2013-04-13 19:33:00,66.0,-99.9,-100.00,SE,145,8.0,11.0,-999,-99.99,,,-99.99,,2013-04-13 23:33:00,
2013-04-13 19:44:00,66.0,-99.9,-100.00,SE,140,8.0,11.0,-999,-99.99,,,-99.99,,2013-04-13 23:44:00,
2013-04-13 19:53:00,65.0,-99.9,-100.00,SE,135,7.0,10.0,-999,-99.99,,,-99.99,,2013-04-13 23:53:00,
2013-04-13 20:03:00,65.0,-99.9,-100.00,SE,140,7.0,11.0,-999,-99.99,,,-99.99,,2013-04-14 00:03:00,
2013-04-13 20:12:00,65.0,-99.9,-100.00,SE,135,6.0,10.0,-999,-99.99,,,-99.99,,2013-04-14 00:12:00,
2013-04-13 20:23:00,64.0,-99.9,-100.00,SE,145,6.0,9.0,-999,-99.99,,,-99.99,,2013-04-14 00:23:00,
2013-04-13 20:32:00,64.0,-99.9,-100.00,SE,145,6.0,9.0,-999,-99.99,,,-99.99,,2013-04-14 00:32:00,
2013-04-13 20:42:00,64.0,-99.9,-100.00,SSE,155,6.0,9.0,-999,-99.99,,,-99.99,,2013-04-14 00:42:00,
2013-04-13 20:52:00,63.0,-99.9,-100.00,SE,135,6.0,9.0,-999,-99.99,,,-99.99,,2013-04-14 00:52:00,
2013-04-13 21:02:00,63.0,-99.9,-100.00,SE,145,6.0,7.0,-999,-99.99,,,-99.99,,2013-04-14 01:02:00,
2013-04-13 21:13:00,63.0,-99.9,-100.00,SE,145,6.0,7.0,-999,-99.99,,,-99.99,,2013-04-14 01:13:00,
2013-04-13 21:23:00,62.0,-99.9,-100.00,SE,130,8.0,10.0,-999,-99.99,,,-99.99,,2013-04-14 01:23:00,
2013-04-13 21:33:00,62.0,-99.9,-100.00,SE,130,7.0,10.0,-999,-99.99,,,-99.99,,2013-04-14 01:33:00,
2013-04-13 21:43:00,62.0,-99.9,-100.00,SE,125,6.0,9.0,-999,-99.99,,,-99.99,,2013-04-14 01:43:00,
2013-04-13 21:53:00,62.0,-99.9,-100.00,SE,125,6.0,10.0,-999,-99.99,,,-99.99,,2013-04-14 01:53:00,
2013-04-13 22:03:00,62.0,-99.9,-100.00,SE,140,6.0,10.0,-999,-99.99,,,-99.99,,2013-04-14 02:03:00,
2013-04-13 22:13:00,62.0,-99.9,-100.00,SE,145,6.0,8.0,-999,-99.99,,,-99.99,,2013-04-14 02:13:00,
2013-04-13 22:23:00,62.0,-99.9,-100.00,SE,130,6.0,8.0,-999,-99.99,,,-99.99,,2013-04-14 02:23:00,
2013-04-13 22:33:00,62.0,-99.9,-100.00,SE,135,6.0,8.0,-999,-99.99,,,-99.99,,2013-04-14 02:33:00,
2013-04-13 22:43:00,62.0,-99.9,-100.00,SSE,150,6.0,8.0,-999,-99.99,,,-99.99,,2013-04-14 02:43:00,
2013-04-13 22:53:00,62.0,-99.9,-100.00,SE,125,6.0,8.0,-999,-99.99,,,-99.99,,2013-04-14 02:53:00,
2013-04-13 23:03:00,62.0,-99.9,-100.00,SE,140,8.0,10.0,-999,-99.99,,,-99.99,,2013-04-14 03:03:00,
2013-04-13 23:13:00,62.0,-99.9,-100.00,SE,145,6.0,10.0,-999,-99.99,,,-99.99,,2013-04-14 03:13:00,
2013-04-13 23:23:00,61.0,-99.9,-100.00,SE,145,7.0,9.0,-999,-99.99,,,-99.99,,2013-04-14 03:23:00,
2013-04-13 23:33:00,61.0,-99.9,-100.00,SE,130,6.0,9.0,-999,-99.99,,,-99.99,,2013-04-14 03:33:00,
2013-04-13 23:43:00,62.0,-99.9,-100.00,SE,130,7.0,9.0,-999,-99.99,,,-99.99,,2013-04-14 03:43:00,
2013-04-13 23:53:00,61.0,-99.9,-100.00,ESE,120,7.0,10.0,-999,-99.99,,,-99.99,,2013-04-14 03:53:00,